• In Deutschland
  • Länderverzeichnis
  • Für 7 Tage
  • Wassertemperatur
  • Satellitenkarten
  • Wetterkarte
  • Widgets
  • user-avatar
    Anmelden

    Stündliche Wetter Ali Bajramli

    Heute, 30 Mai, Dienstag

    Zeit Temperatur Niederschläge Wind Luftdruck Luftfeuchtigkeit
    00:00 +20°C° 0 mm 2 m/S 763 mmHg 70%
    01:00 +19°C° 0 mm 2 m/S 763 mmHg 72%
    02:00 +19°C° 0 mm 2 m/S 762 mmHg 73%
    03:00 +19°C° 0 mm 1 m/S 762 mmHg 75%
    04:00 +20°C° 0 mm 1 m/S 762 mmHg 72%
    05:00 +21°C° 0 mm 1 m/S 762 mmHg 70%
    06:00 +21°C° 0 mm 1 m/S 761 mmHg 67%
    07:00 +23°C° 0 mm 1 m/S 761 mmHg 61%
    08:00 +24°C° 0 mm 2 m/S 761 mmHg 54%
    09:00 +25°C° 0 mm 2 m/S 760 mmHg 48%
    10:00 +27°C° 0 mm 3 m/S 760 mmHg 45%
    11:00 +28°C° 0 mm 3 m/S 759 mmHg 42%
    12:00 +29°C° 0 mm 4 m/S 759 mmHg 38%
    13:00 +30°C° 0 mm 4 m/S 758 mmHg 37%
    14:00 +32°C° 0 mm 4 m/S 758 mmHg 36%
    15:00 +32°C° 0 mm 5 m/S 757 mmHg 34%
    16:00 +30°C° 0 mm 5 m/S 757 mmHg 37%
    17:00 +29°C° 0 mm 5 m/S 757 mmHg 40%
    18:00 +28°C° 0 mm 5 m/S 756 mmHg 43%
    19:00 +26°C° 0 mm 4 m/S 756 mmHg 49%
    20:00 +25°C° 0 mm 3 m/S 757 mmHg 55%
    21:00 +22°C° 0 mm 3 m/S 757 mmHg 60%
    22:00 +23°C° 0 mm 2 m/S 757 mmHg 62%
    23:00 +21°C° 0 mm 2 m/S 757 mmHg 64%

    Morgen, 31 Mai, Mittwoch

    Zeit Temperatur Niederschläge Wind Luftdruck Luftfeuchtigkeit
    00:00 +22°C° 0 mm 1 m/S 757 mmHg 66%
    01:00 +22°C° 0 mm 1 m/S 756 mmHg 67%
    02:00 +21°C° 0 mm 1 m/S 756 mmHg 67%
    03:00 +19°C° 0 mm 0 m/S 756 mmHg 68%
    04:00 +22°C° 0 mm 1 m/S 756 mmHg 64%
    05:00 +23°C° 0 mm 1 m/S 756 mmHg 60%
    06:00 +24°C° 0 mm 1 m/S 756 mmHg 56%
    07:00 +26°C° 0 mm 1 m/S 756 mmHg 51%
    08:00 +27°C° 0 mm 2 m/S 756 mmHg 47%
    09:00 +29°C° 0 mm 2 m/S 756 mmHg 42%
    10:00 +30°C° 0 mm 3 m/S 755 mmHg 39%
    11:00 +31°C° 0 mm 3 m/S 755 mmHg 36%
    12:00 +33°C° 0 mm 4 m/S 754 mmHg 34%
    13:00 +33°C° 0 mm 5 m/S 754 mmHg 33%
    14:00 +33°C° 0 mm 5 m/S 753 mmHg 33%
    15:00 +34°C° 0 mm 6 m/S 753 mmHg 33%
    16:00 +32°C° 0 mm 6 m/S 753 mmHg 36%
    17:00 +30°C° 0 mm 6 m/S 753 mmHg 38%
    18:00 +29°C° 0 mm 6 m/S 753 mmHg 41%
    19:00 +27°C° 0 mm 6 m/S 753 mmHg 44%
    20:00 +26°C° 0 mm 5 m/S 754 mmHg 48%
    21:00 +25°C° 0 mm 4 m/S 754 mmHg 51%
    22:00 +23°C° 0 mm 4 m/S 754 mmHg 53%
    23:00 +22°C° 0 mm 4 m/S 754 mmHg 55%

    übermorgen, 1 Juni, Donnerstag

    Zeit Temperatur Niederschläge Wind Luftdruck Luftfeuchtigkeit
    00:00 +22°C° 0 mm 4 m/S 754 mmHg 57%
    01:00 +21°C° 0 mm 3 m/S 754 mmHg 59%
    02:00 +21°C° 0 mm 3 m/S 754 mmHg 62%
    03:00 +20°C° 0 mm 2 m/S 754 mmHg 65%
    04:00 +21°C° 0 mm 2 m/S 754 mmHg 63%
    05:00 +22°C° 0 mm 3 m/S 755 mmHg 61%
    06:00 +22°C° 0 mm 3 m/S 755 mmHg 59%
    07:00 +25°C° 0 mm 3 m/S 755 mmHg 53%
    08:00 +27°C° 0 mm 3 m/S 755 mmHg 46%
    09:00 +28°C° 0 mm 3 m/S 755 mmHg 39%
    10:00 +30°C° 0 mm 3 m/S 755 mmHg 36%
    11:00 +31°C° 0 mm 3 m/S 755 mmHg 33%
    12:00 +32°C° 0 mm 2 m/S 755 mmHg 30%
    13:00 +33°C° 0 mm 3 m/S 754 mmHg 31%
    14:00 +33°C° 0 mm 4 m/S 754 mmHg 31%
    15:00 +33°C° 0 mm 5 m/S 754 mmHg 32%
    16:00 +32°C° 0 mm 5 m/S 754 mmHg 36%
    17:00 +30°C° 0 mm 6 m/S 754 mmHg 40%
    18:00 +28°C° 0 mm 6 m/S 754 mmHg 43%
    19:00 +27°C° 0 mm 6 m/S 754 mmHg 47%
    20:00 +26°C° 0 mm 5 m/S 755 mmHg 51%
    21:00 +25°C° 0 mm 5 m/S 755 mmHg 54%
    22:00 +23°C° 0 mm 4 m/S 755 mmHg 56%
    23:00 +24°C° 0 mm 3 m/S 755 mmHg 59%

    2 Juni, Freitag

    Zeit Temperatur Niederschläge Wind Luftdruck Luftfeuchtigkeit
    00:00 +22°C° 0 mm 3 m/S 755 mmHg 61%
    01:00 +23°C° 0 mm 2 m/S 755 mmHg 62%
    02:00 +21°C° 0 mm 2 m/S 755 mmHg 62%
    03:00 +21°C° 0 mm 2 m/S 755 mmHg 63%
    04:00 +21°C° 0 mm 2 m/S 756 mmHg 59%
    05:00 +23°C° 0 mm 1 m/S 756 mmHg 56%
    06:00 +24°C° 0 mm 1 m/S 756 mmHg 53%
    07:00 +25°C° 0 mm 1 m/S 756 mmHg 49%
    08:00 +27°C° 0 mm 1 m/S 757 mmHg 45%
    09:00 +28°C° 0 mm 1 m/S 757 mmHg 41%
    10:00 +29°C° 0 mm 2 m/S 757 mmHg 39%
    11:00 +30°C° 0 mm 2 m/S 756 mmHg 36%
    12:00 +31°C° 0 mm 2 m/S 756 mmHg 33%
    13:00 +31°C° 0 mm 3 m/S 756 mmHg 34%
    14:00 +32°C° 0 mm 4 m/S 755 mmHg 34%
    15:00 +33°C° 0 mm 5 m/S 755 mmHg 34%
    16:00 +30°C° 0 mm 6 m/S 755 mmHg 38%
    17:00 +29°C° 0 mm 6 m/S 756 mmHg 43%
    18:00 +28°C° 0 mm 6 m/S 756 mmHg 47%
    19:00 +26°C° 0,1 mm 5 m/S 756 mmHg 51%
    20:00 +25°C° 0,1 mm 4 m/S 757 mmHg 55%
    21:00 +24°C° 0,1 mm 3 m/S 757 mmHg 59%
    22:00 +24°C° 0 mm 2 m/S 757 mmHg 62%
    23:00 +23°C° 0 mm 2 m/S 757 mmHg 64%

    3 Juni, Samstag

    Zeit Temperatur Niederschläge Wind Luftdruck Luftfeuchtigkeit
    00:00 +23°C° 0 mm 1 m/S 757 mmHg 67%
    01:00 +22°C° 0,1 mm 1 m/S 758 mmHg 68%
    02:00 +22°C° 0,1 mm 1 m/S 758 mmHg 69%
    03:00 +22°C° 0,1 mm 1 m/S 758 mmHg 70%
    04:00 +22°C° 0 mm 1 m/S 759 mmHg 67%
    05:00 +23°C° 0 mm 2 m/S 759 mmHg 64%
    06:00 +24°C° 0 mm 2 m/S 760 mmHg 62%
    07:00 +25°C° 0 mm 3 m/S 760 mmHg 58%
    08:00 +26°C° 0 mm 3 m/S 760 mmHg 54%
    09:00 +27°C° 0 mm 3 m/S 761 mmHg 50%
    10:00 +27°C° 0,3 mm 4 m/S 761 mmHg 48%
    11:00 +28°C° 0,3 mm 4 m/S 761 mmHg 47%
    12:00 +28°C° 0,3 mm 5 m/S 761 mmHg 45%
    13:00 +28°C° 0,3 mm 5 m/S 760 mmHg 44%
    14:00 +28°C° 0,3 mm 6 m/S 760 mmHg 43%
    15:00 +28°C° 0,3 mm 6 m/S 760 mmHg 42%
    16:00 +28°C° 0,1 mm 6 m/S 760 mmHg 43%
    17:00 +27°C° 0,1 mm 6 m/S 760 mmHg 45%
    18:00 +26°C° 0,1 mm 6 m/S 761 mmHg 46%
    19:00 +25°C° 0 mm 5 m/S 761 mmHg 50%
    20:00 +23°C° 0 mm 4 m/S 761 mmHg 53%
    21:00 +22°C° 0 mm 3 m/S 762 mmHg 57%
    22:00 +21°C° 0 mm 3 m/S 762 mmHg 60%
    23:00 +21°C° 0 mm 2 m/S 762 mmHg 62%

    4 Juni, Sonntag

    Zeit Temperatur Niederschläge Wind Luftdruck Luftfeuchtigkeit
    00:00 +21°C° 0 mm 1 m/S 761 mmHg 65%
    01:00 +21°C° 0 mm 1 m/S 762 mmHg 67%
    02:00 +21°C° 0 mm 1 m/S 762 mmHg 68%
    03:00 +20°C° 0 mm 1 m/S 762 mmHg 69%
    04:00 +21°C° 0 mm 1 m/S 762 mmHg 66%
    05:00 +22°C° 0 mm 1 m/S 763 mmHg 62%
    06:00 +23°C° 0 mm 1 m/S 763 mmHg 59%
    07:00 +24°C° 0 mm 1 m/S 763 mmHg 53%
    08:00 +25°C° 0 mm 1 m/S 763 mmHg 48%
    09:00 +26°C° 0 mm 2 m/S 763 mmHg 43%
    10:00 +27°C° 0 mm 2 m/S 763 mmHg 40%
    11:00 +28°C° 0 mm 3 m/S 763 mmHg 37%
    12:00 +29°C° 0 mm 4 m/S 763 mmHg 34%
    13:00 +29°C° 0 mm 4 m/S 762 mmHg 34%
    14:00 +30°C° 0 mm 5 m/S 762 mmHg 33%
    15:00 +30°C° 0 mm 5 m/S 762 mmHg 33%
    16:00 +29°C° 0 mm 5 m/S 762 mmHg 35%
    17:00 +28°C° 0 mm 5 m/S 762 mmHg 37%
    18:00 +27°C° 0 mm 5 m/S 762 mmHg 40%
    19:00 +25°C° 0 mm 4 m/S 763 mmHg 44%
    20:00 +24°C° 0 mm 3 m/S 763 mmHg 49%
    21:00 +22°C° 0 mm 3 m/S 763 mmHg 54%
    22:00 +21°C° 0 mm 2 m/S 763 mmHg 57%
    23:00 +21°C° 0 mm 2 m/S 763 mmHg 59%
    Mehr zeigen